Weather History for KFAM - November, 2013

Change the Weather History Date:

Wednesday, November 27, 2013

  Actual Average Record
Temperature  
Mean Temperature 24 °F -  
Max Temperature 30 °F 49 °F 75 °F (1998)
Min Temperature 17 °F 33 °F 17 °F (1996)
Degree Days  
Heating Degree Days 42    
Moisture  
Dew Point 8 °F    
Average Humidity 55    
Maximum Humidity 73    
Minimum Humidity 37    
Precipitation  
Precipitation 0.00 in - - ()
Sea Level Pressure  
Sea Level Pressure 30.31 in    
Wind  
Wind Speed 10 mph (NW)    
Max Wind Speed 16 mph    
Max Gust Speed 23 mph    
Visibility 10 miles    
Events      
Averages and records for this station are not official NWS values.
T = Trace of Precipitation, MM = Missing Value Source: NWS Daily Summary

Daily Weather History Graph

Daily Weather History Graph

Search for Another Location

Airport or City:

Trip Planner

Search our weather history database for the weather conditions in past years. The results will help you decide how hot, cold, wet, or windy it might be!

Date:

Astronomy

Nov. 27, 2013 Rise Set
Actual Time 6:54 AM CST 4:44 PM CST
Civil Twilight 6:25 AM CST 5:12 PM CST
Nautical Twilight 5:53 AM CST 5:45 PM CST
Astronomical Twilight 5:22 AM CST 6:16 PM CST
Moon 1:02 AM CST (11/27) 1:16 PM CST (11/27)
Length of Visible Light 10h 46m
Length of Day
9h 49m
Waning Crescent, 31% of the Moon is Illuminated
Nov 27
Waning Crescent
Dec 2
New
Dec 9
First Quarter
Dec 17
Full
Dec 25
Last Quarter

Hourly Weather History & Observations

Time (CST) Temp. Windchill Dew Point Humidity Pressure Visibility Wind Dir Wind Speed Gust Speed Precip Events Conditions
12:15 AM 23.0 °F 9.6 °F 8.6 °F 54% 30.23 in 10.0 mi NNW 16.1 mph 23.0 mph N/A   Overcast
12:35 AM 23.0 °F 11.1 °F 8.6 °F 54% 30.23 in 10.0 mi NNW 12.7 mph 21.9 mph N/A   Overcast
12:55 AM 23.0 °F 10.1 °F 8.6 °F 54% 30.23 in 10.0 mi NNW 15.0 mph 23.0 mph N/A   Overcast
1:15 AM 21.2 °F 7.3 °F 8.6 °F 58% 30.23 in 10.0 mi NNW 16.1 mph 23.0 mph N/A   Overcast
1:35 AM 21.2 °F 8.9 °F 8.6 °F 58% 30.23 in 10.0 mi NNW 12.7 mph 20.7 mph N/A   Overcast
1:55 AM 21.2 °F 8.3 °F 8.6 °F 58% 30.24 in 10.0 mi NNW 13.8 mph - N/A   Overcast
2:15 AM 21.2 °F 10.1 °F 8.6 °F 58% 30.24 in 10.0 mi NNW 10.4 mph 16.1 mph N/A   Overcast
2:35 AM 21.2 °F 8.9 °F 8.6 °F 58% 30.25 in 10.0 mi NNW 12.7 mph 18.4 mph N/A   Mostly Cloudy
2:55 AM 21.2 °F 10.9 °F 8.6 °F 58% 30.24 in 10.0 mi North 9.2 mph - N/A   Scattered Clouds
3:15 AM 21.2 °F 10.9 °F 8.6 °F 58% 30.25 in 10.0 mi North 9.2 mph 19.6 mph N/A   Mostly Cloudy
3:35 AM 21.2 °F 11.7 °F 8.6 °F 58% 30.24 in 10.0 mi NNW 8.1 mph 17.3 mph N/A   Overcast
3:55 AM 21.2 °F 11.7 °F 10.4 °F 63% 30.25 in 10.0 mi NNW 8.1 mph - N/A   Overcast
4:15 AM 19.4 °F 6.6 °F 8.6 °F 63% 30.25 in 10.0 mi NNW 12.7 mph 19.6 mph N/A   Mostly Cloudy
4:35 AM 19.4 °F 7.9 °F 6.8 °F 58% 30.26 in 10.0 mi NW 10.4 mph 19.6 mph N/A   Partly Cloudy
4:55 AM 17.6 °F 5.7 °F 6.8 °F 63% 30.26 in 10.0 mi NW 10.4 mph - N/A   Clear
5:15 AM 17.6 °F 5.7 °F 8.6 °F 68% 30.27 in 10.0 mi NW 10.4 mph - N/A   Clear
5:35 AM 17.6 °F 5.7 °F 8.6 °F 68% 30.27 in 10.0 mi NW 10.4 mph - N/A   Clear
5:55 AM 17.6 °F 5.0 °F 6.8 °F 63% 30.28 in 10.0 mi NW 11.5 mph 17.3 mph N/A   Clear
6:15 AM 17.6 °F 5.7 °F 8.6 °F 68% 30.29 in 10.0 mi NNW 10.4 mph - N/A   Clear
6:35 AM 17.6 °F 6.4 °F 6.8 °F 63% 30.30 in 10.0 mi NW 9.2 mph - N/A   Clear
6:55 AM 17.6 °F 4.3 °F 6.8 °F 63% 30.31 in 10.0 mi NNW 12.7 mph - N/A   Clear
7:15 AM 17.6 °F 5.7 °F 6.8 °F 63% 30.31 in 10.0 mi NW 10.4 mph - N/A   Clear
7:35 AM 17.6 °F 5.7 °F 8.6 °F 68% 30.32 in 10.0 mi NW 10.4 mph 16.1 mph N/A   Clear
7:55 AM 17.6 °F 5.7 °F 8.6 °F 68% 30.32 in 10.0 mi NNW 10.4 mph - N/A   Clear
8:15 AM 17.6 °F 5.0 °F 8.6 °F 68% 30.33 in 10.0 mi NNW 11.5 mph - N/A   Clear
8:35 AM 19.4 °F 6.6 °F 8.6 °F 63% 30.34 in 10.0 mi NNW 12.7 mph 20.7 mph N/A   Clear
8:55 AM 19.4 °F 7.2 °F 8.6 °F 63% 30.35 in 10.0 mi NW 11.5 mph - N/A   Clear
9:15 AM 19.4 °F 7.9 °F 6.8 °F 58% 30.36 in 10.0 mi NNW 10.4 mph 20.7 mph N/A   Clear
9:35 AM 21.2 °F 8.3 °F 6.8 °F 54% 30.36 in 10.0 mi NNW 13.8 mph 19.6 mph N/A   Clear
9:55 AM 21.2 °F 8.9 °F 6.8 °F 54% 30.36 in 10.0 mi NNW 12.7 mph 21.9 mph N/A   Clear
10:15 AM 21.2 °F 9.5 °F 6.8 °F 54% 30.36 in 10.0 mi NNW 11.5 mph - N/A   Clear
10:35 AM 23.0 °F 10.6 °F 6.8 °F 50% 30.36 in 10.0 mi NNW 13.8 mph 18.4 mph N/A   Clear
10:55 AM 24.8 °F 14.0 °F 6.8 °F 46% 30.35 in 10.0 mi NNW 11.5 mph 17.3 mph N/A   Clear
11:15 AM 24.8 °F 15.3 °F 8.6 °F 50% 30.34 in 10.0 mi NNW 9.2 mph - N/A   Clear
11:35 AM 24.8 °F 14.0 °F 6.8 °F 46% 30.33 in 10.0 mi NNW 11.5 mph 18.4 mph N/A   Clear
11:55 AM 26.6 °F 16.2 °F 6.8 °F 43% 30.33 in 10.0 mi NNW 11.5 mph 17.3 mph N/A   Clear
12:15 PM 26.6 °F 16.2 °F 6.8 °F 43% 30.32 in 10.0 mi NW 11.5 mph 16.1 mph N/A   Clear
12:35 PM 26.6 °F 16.8 °F 6.8 °F 43% 30.32 in 10.0 mi NW 10.4 mph 16.1 mph N/A   Clear
12:55 PM 28.4 °F 18.0 °F 6.8 °F 40% 30.32 in 10.0 mi NW 12.7 mph 17.3 mph N/A   Clear
1:15 PM 28.4 °F 20.4 °F 8.6 °F 43% 30.31 in 10.0 mi NW 8.1 mph 16.1 mph N/A   Clear
1:35 PM 28.4 °F 18.5 °F 6.8 °F 40% 30.30 in 10.0 mi WNW 11.5 mph 16.1 mph N/A   Clear
1:55 PM 28.4 °F 19.1 °F 6.8 °F 40% 30.31 in 10.0 mi NW 10.4 mph 17.3 mph N/A   Clear
2:15 PM 30.2 °F 20.2 °F 6.8 °F 37% 30.31 in 10.0 mi WNW 12.7 mph - N/A   Clear
2:35 PM 30.2 °F 20.8 °F 6.8 °F 37% 30.31 in 10.0 mi WNW 11.5 mph - N/A   Clear
2:55 PM 30.2 °F 20.8 °F 6.8 °F 37% 30.31 in 10.0 mi NW 11.5 mph 16.1 mph N/A   Clear
3:15 PM 30.2 °F 22.6 °F 6.8 °F 37% 30.31 in 10.0 mi West 8.1 mph - N/A   Clear
3:35 PM 30.2 °F 21.9 °F 6.8 °F 37% 30.31 in 10.0 mi NW 9.2 mph - N/A   Clear
3:55 PM 28.4 °F 19.7 °F 6.8 °F 40% 30.31 in 10.0 mi NW 9.2 mph - N/A   Clear
4:15 PM 28.4 °F 19.7 °F 6.8 °F 40% 30.31 in 10.0 mi NW 9.2 mph - N/A   Clear
4:35 PM 28.4 °F 21.2 °F 5.0 °F 37% 30.31 in 10.0 mi WNW 6.9 mph - N/A   Clear
4:55 PM 26.6 °F 21.2 °F 5.0 °F 40% 30.32 in 10.0 mi NW 4.6 mph - N/A   Clear
5:15 PM 26.6 °F - 6.8 °F 43% 30.32 in 10.0 mi Calm Calm - N/A   Clear
5:35 PM 24.8 °F - 6.8 °F 46% 30.33 in 10.0 mi Calm Calm - N/A   Clear
5:55 PM 26.6 °F - 6.8 °F 43% 30.33 in 10.0 mi Calm Calm - N/A   Clear
6:15 PM 26.6 °F - 5.0 °F 40% 30.33 in 10.0 mi Calm Calm - N/A   Clear
6:35 PM 24.8 °F - 5.0 °F 43% 30.32 in 10.0 mi Calm Calm - N/A   Clear
6:55 PM 21.2 °F - 8.6 °F 58% 30.34 in 10.0 mi Calm Calm - N/A   Clear
7:15 PM 23.0 °F - 8.6 °F 54% 30.33 in 10.0 mi Calm Calm - N/A   Clear
7:35 PM 23.0 °F - 6.8 °F 50% 30.32 in 10.0 mi Calm Calm - N/A   Clear
7:55 PM 21.2 °F - 8.6 °F 58% 30.32 in 10.0 mi Calm Calm - N/A   Clear
8:15 PM 19.4 °F - 8.6 °F 63% 30.33 in 10.0 mi Calm Calm - N/A   Clear
8:35 PM 19.4 °F - 10.4 °F 68% 30.32 in 10.0 mi Calm Calm - N/A   Clear
8:55 PM 19.4 °F - 10.4 °F 68% 30.33 in 10.0 mi Calm Calm - N/A   Clear
9:15 PM 17.6 °F - 10.4 °F 73% 30.32 in 10.0 mi Calm Calm - N/A   Clear
9:35 PM 17.6 °F - 10.4 °F 73% 30.32 in 10.0 mi Calm Calm - N/A   Clear
9:55 PM 17.6 °F - 10.4 °F 73% 30.32 in 10.0 mi Calm Calm - N/A   Clear
10:15 PM 17.6 °F - 10.4 °F 73% 30.32 in 10.0 mi Calm Calm - N/A   Clear
10:35 PM 17.6 °F 10.7 °F 10.4 °F 73% 30.33 in 10.0 mi SSE 4.6 mph - N/A   Clear
10:55 PM 17.6 °F 10.7 °F 8.6 °F 68% 30.33 in 10.0 mi SSE 4.6 mph - N/A   Clear
11:15 PM 19.4 °F - 8.6 °F 63% 30.33 in 10.0 mi Calm Calm - N/A   Clear
11:35 PM 17.6 °F 10.7 °F 8.6 °F 68% 30.33 in 10.0 mi South 4.6 mph - N/A   Clear
11:55 PM 17.6 °F - 8.6 °F 68% 30.33 in 10.0 mi Calm Calm - N/A   Clear